TimePDT,TemperatureF,Dew PointF,Humidity,Sea Level PressureIn,VisibilityMPH,Wind Direction,Wind SpeedMPH,Gust SpeedMPH,PrecipitationIn,Events,Conditions,WindDirDegrees,DateUTC
12:54 AM,64.9,37.0,36,29.92,10.0,NW,4.6,-,N/A,,Clear,310,2013-06-20 07:54:00
1:54 AM,62.1,45.0,53,29.92,10.0,West,5.8,-,N/A,,Clear,280,2013-06-20 08:54:00
2:54 AM,61.0,43.0,52,29.92,10.0,Calm,Calm,-,N/A,,Clear,0,2013-06-20 09:54:00
3:54 AM,59.0,39.9,49,29.93,10.0,Calm,Calm,-,N/A,,Clear,0,2013-06-20 10:54:00
4:54 AM,57.9,39.9,51,29.93,10.0,Calm,Calm,-,N/A,,Clear,0,2013-06-20 11:54:00
5:54 AM,57.0,39.0,51,29.94,10.0,WNW,4.6,-,N/A,,Clear,300,2013-06-20 12:54:00
6:54 AM,62.1,42.1,48,29.94,10.0,ESE,3.5,-,N/A,,Clear,110,2013-06-20 13:54:00
7:54 AM,68.0,42.1,39,29.95,10.0,NNW,6.9,-,N/A,,Clear,330,2013-06-20 14:54:00
8:54 AM,70.0,42.1,36,29.96,10.0,NW,11.5,-,N/A,,Clear,320,2013-06-20 15:54:00
9:54 AM,72.0,41.0,33,29.95,10.0,WNW,8.1,-,N/A,,Clear,300,2013-06-20 16:54:00
10:54 AM,73.9,41.0,30,29.95,10.0,Variable,5.8,-,N/A,,Clear,0,2013-06-20 17:54:00
11:54 AM,77.0,39.9,26,29.93,10.0,Variable,4.6,-,N/A,,Clear,0,2013-06-20 18:54:00
12:54 PM,78.1,41.0,27,29.92,10.0,North,3.5,-,N/A,,Clear,350,2013-06-20 19:54:00
1:54 PM,81.0,41.0,24,29.90,10.0,NW,11.5,-,N/A,,Clear,320,2013-06-20 20:54:00
2:54 PM,82.0,36.0,19,29.88,10.0,WNW,9.2,-,N/A,,Clear,290,2013-06-20 21:54:00
3:54 PM,84.0,35.1,17,29.87,10.0,WNW,10.4,16.1,N/A,,Clear,300,2013-06-20 22:54:00
4:54 PM,84.9,37.9,19,29.86,10.0,WNW,10.4,18.4,N/A,,Clear,300,2013-06-20 23:54:00
5:54 PM,84.9,37.0,18,29.84,10.0,WNW,10.4,-,N/A,,Clear,300,2013-06-21 00:54:00
6:54 PM,84.9,36.0,17,29.84,10.0,NW,9.2,-,N/A,,Clear,310,2013-06-21 01:54:00
7:54 PM,82.0,32.0,16,29.85,10.0,NNW,6.9,-,N/A,,Clear,330,2013-06-21 02:54:00
8:54 PM,77.0,39.0,25,29.86,10.0,NNW,3.5,-,N/A,,Clear,340,2013-06-21 03:54:00
9:54 PM,73.9,36.0,25,29.88,10.0,NW,3.5,-,N/A,,Clear,320,2013-06-21 04:54:00
10:54 PM,75.0,39.0,27,29.88,10.0,North,4.6,-,N/A,,Clear,360,2013-06-21 05:54:00
11:54 PM,71.1,39.0,31,29.89,10.0,North,4.6,-,N/A,,Clear,350,2013-06-21 06:54:00